KUIPER-00157

导读

KUIPER-00157是美国亚马逊公司柯伊伯(Project Kuiper)低轨互联网星座的组网卫星,于2025年10月14日发射入轨。该星座计划部署3236颗卫星,运行于近地轨道,旨在为全球提供高速、低延迟的天基宽带互联网服务。作为星座组网阶段的卫星之一,KUIPER-00157采用改进技术,将助力亚马逊完成全球卫星互联网覆盖目标,参与低轨星座市场竞争。

Basic Information
目录编号:
65970
目录名称:
KUIPER-00157
国际标识:
2025-228Z
轨道中心:
EARTH
卫星名称:
KUIPER-00157
卫星全名:
KUIPER-00157
卫星状态:
在轨 (已飞行326 天)
发射日期:
2025-10-14 UTC
国别 :
美国 (US)
星等 :
--
Orbit Information
数据来源 国际轨道数据 AOE轨道数据
星历时间 2026-09-05T15:04:06+0800
10小时前
查看轨道信息
2026-08-30T02:00:00+0800
6天前
查看轨道信息
半长轴 7003.452km 7003.52km
偏心率 0.0000341 0.0000892
轨道倾角 51.902° 51.904°
近地点辐角 218.620° 160.299°
升交点赤经 263.481° 292.484°
平近点角 141.474° 199.595°
近地点 625.076km 624.758km
远地点 625.554km 626.008km
周期 97.214分钟 97.215分钟
每日圈数 14.812711 14.812497
Detailed Information
使用方式:
暂无
2D Orbit Map
3D Orbit Map
Orbit Altitude Analysis Chart
Orbit Inclination Analysis Chart
Orbit Comprehensive Analysis Chart
View Comprehensive Chart
Conjunction Data List
Event ID Objects TCA Miss Dist (km) Collision Risk Probability Collision Risk Index (CRI) Action
CDM_260906-071806-101506-597023
2026-09-06T
07:18:53+0000
2.562 km
极远距离
1.461768E-6 低风险 0.38
CDM_260830-032106-597006-976921
2026-08-30T
03:21:25+0000
2.875 km
极远距离
6.227987E-7 极低风险 0.31